Regional Weather Roundup
Issued by NWS

Home | Current Version | Previous Version | Text Only | Print | Product List | Glossary On
Versions: 1 2 3 4 5 6 7 8 9 10 11 12 13 14 15 16 17 18 19 20 21 22 23 24 25 26 27 28 29 30 31 32 33 34 35 36 37 38 39 40 41 42 43 44 45 46 47 48 49 50
920
ASUS43 KMKX 260211
RWRWI

WISCONSIN REGIONAL WEATHER ROUNDUP
NATIONAL WEATHER SERVICE MILWAUKEE/SULLIVAN WI
900 PM CDT SAT MAR 25 2017

NOTE: "FAIR" INDICATES FEW OR NO CLOUDS BELOW 12,000 FEET WITH NO
SIGNIFICANT WEATHER AND/OR OBSTRUCTIONS TO VISIBILITY.

WIZ001-002-006>008-014>016-023>028-260300-
NORTHWEST WISCONSIN

CITY           SKY/WX    TMP DP  RH WIND       PRES   REMARKS
SUPERIOR ARPT  CLOUDY    33  31  93 E10G17    30.18S WCI  25
ASHLAND        CLOUDY    33  30  88 NE10      30.17F WCI  25
HAYWARD        CLOUDY    38  29  70 NE10      30.11S WCI  31
SIREN          CLOUDY    40  30  68 NE9       30.09S WCI  34
CUMBERLAND     CLOUDY    37  32  81 E10       30.08S WCI  30
RICE LAKE      CLOUDY    38  35  90 CALM      30.10S
CHETEK         DRIZZLE   37  36  96 CALM      30.09S
LADYSMITH      CLOUDY    37  35  92 NE8       30.11F WCI  31
EAU CLAIRE     CLOUDY    38  34  85 E15       30.07S WCI  29
MENOMONIE      CLOUDY    39  36  87 NE12G17   30.08S WCI  32
NEW RICHMOND   CLOUDY    39  33  80 E9        30.07S WCI  32
OSCEOLA        CLOUDY    41  33  73 E10       30.10S
$$

WIZ003>005-009-010-017-018-260300-
NORTH CENTRAL WISCONSIN

CITY           SKY/WX    TMP DP  RH WIND       PRES   REMARKS
MANITOWISH WTR CLOUDY    35  32  88 E3        30.12S
ARBOR VITAE    CLOUDY    37  32  85 SE9G17    30.12R HAZE    WCI  30
WOODRUFF       CLOUDY    37  32  85 SE9G17    30.12R HAZE    WCI  30
RHINELANDER    LGT RAIN  35  31  85 E12       30.13S FOG     WCI  27
EAGLE RIVER    DRIZZLE   33  29  85 E10       30.13S WCI  25
LAND O LAKES   CLOUDY    36  30  77 SE9       30.16R WCI  29
PHILLIPS       CLOUDY    34  34 100 E5        30.10F WCI  30
TOMAHAWK       CLOUDY    33  31  94 E8        30.13S FOG     WCI  25
MEDFORD        CLOUDY    33  32  96 E10       30.08S WCI  24
MERRILL        CLOUDY    33  32  99 E10       30.12S WCI  24
$$

WIZ029-030-035-036-043>047-260300-
CENTRAL WISCONSIN

CITY           SKY/WX    TMP DP  RH WIND       PRES   REMARKS
WAUSAU         CLOUDY    33  31  92 E9        30.10S WCI  25
MOSINEE        DRIZZLE   32  32 100 E15G22    30.11S WCI  22
MARSHFIELD     CLOUDY    33  30  88 E13       30.07S WCI  24
STEVENS POINT  CLOUDY    32  32 100 E12G20    30.11R WCI  23
WAUPACA        LGT RAIN  36  34  92 NE9       30.13S WCI  29
WAUTOMA        CLOUDY    35  34  96 NE15      30.09S WCI  25
WISC RAPIDS    CLOUDY    34  33  96 E9        30.10S WCI  27
CAMP DOUGLAS   CLOUDY    36  34  93 E12       30.07S WCI  27
$$

WIZ011>013-019>022-031-037>040-048>050-260300-
NORTHEAST WISCONSIN

CITY           SKY/WX    TMP DP  RH WIND       PRES   REMARKS
ANTIGO         CLOUDY    31  31  99 E14G20    30.13F WCI  21
SHAWANO        LGT RAIN  35  32  91 NE10G17   30.16S WCI  27
OCONTO         CLOUDY    33  32  96 NE7       30.17F WCI  27
STURGEON BAY   LGT RAIN  35  34  96 NE9       30.17F WCI  28
GREEN BAY      LGT RAIN  35  35 100 NE14      30.14F WCI  26
MANITOWOC      CLOUDY    37  36  96 NE9G17    30.13F WCI  30
APPLETON       LGT RAIN  34  34 100 NE13G21   30.10S WCI  25
CLINTONVILLE   DRIZZLE   34  32  93 NE10G21   30.14S WCI  26
OSHKOSH        CLOUDY    37  35  92 E12       30.09F WCI  29
$$

WIZ032>034-041-042-053>061-260300-
SOUTHWEST WISCONSIN

CITY           SKY/WX    TMP DP  RH WIND       PRES   REMARKS
LA CROSSE      CLOUDY    38  36  92 NE10      30.05S WCI  31
SPARTA         CLOUDY    36  35  96 E10G18    30.07S WCI  28
VIROQUA        CLOUDY    36  36 100 E16       30.00F WCI  26
BOSCOBEL       CLOUDY    40  38  93 NE9G18    30.01S WCI  34
PRAIRIE DU CHI CLOUDY    39  38  97 E13       30.00R WCI  31
PLATTEVILLE    CLOUDY    40  40 100 NE17G23   29.97S WCI  31
$$

WIZ056-057-062-063-064-067-068-260300-
SOUTH CENTRAL WISCONSIN

CITY           SKY/WX    TMP DP  RH WIND       PRES   REMARKS
REEDSBURG      CLOUDY    36  36 100 E10G16    30.04F WCI  28
BARABOO/DELLS  CLOUDY    36  35  97 NE13      30.04F FOG     WCI  27
LONE ROCK      CLOUDY    39  37  92 E12       30.03S FOG     WCI  32
MINERAL POINT  CLOUDY    39  39 100 E17       29.98S FOG     WCI  30
MADISON        DRIZZLE   39  37  92 NE10      30.03F WCI  32
MIDDLETON      CLOUDY    40  39  97 E9        30.03S WCI  34
WATERTOWN      CLOUDY    38  38 100 E13       30.03S WCI  31
MONROE         CLOUDY    37  37 100 NE16      29.98S WCI  28
JANESVILLE     CLOUDY    41  41 100 NE12      30.00R
$$

WIZ051-052-058>065-066-070>072-260300-
SOUTHEAST WISCONSIN

CITY           SKY/WX    TMP DP  RH WIND       PRES   REMARKS
MILWAUKEE      LGT RAIN  39  36  89 NE13      30.07R FOG     WCI  31
WAUKESHA       LGT RAIN  36  36 100 E14G20    30.05S WCI  27
MILWAUKEE/TIMM CLOUDY    37  36  93 NE10      30.08S WCI  30
RACINE         LGT RAIN  39  37  92 NE13      30.06S FOG     WCI  31
KENOSHA        CLOUDY    41  39  93 NE12      30.03R FOG
FOND DU LAC    CLOUDY    38  35  89 E10       30.09S WCI  31
SHEBOYGAN      CLOUDY    37  35  92 NE15      30.10F WCI  28
WEST BEND      DRIZZLE   36  36 100 E10       30.07S WCI  28
JUNEAU         CLOUDY    37  37  97 NE9       30.06S WCI  31
$$

LSZ147-162-260300-
LAKE SUPERIOR

STATION/POSITION TIME  TEMP    WIND        PRES    WAVE
                       AIR SEA DIR/SP/G            HT/PER
                 (UTC) (F)     (DEG/KT/KT) (MB)    (FT/S)
DEVILS ISLAND    0100   33      70/ 21/ 23 1023.6F
PORT WING        0130   34      40/  9/ 10 1022.0F
SAXON HARBOR     0130   31      80/  2/  4 1021.3S
$$

LMZ867-665-643>646-260300-
LAKE MICHIGAN

STATION/POSITION TIME  TEMP    WIND        PRES    WAVE
                       AIR SEA DIR/SP/G            HT/PER
                 (UTC) (F)     (DEG/KT/KT) (MB)    (FT/S)
CHAMBERS ISLAND  0130   33      40/ 12/ 15 1022.4S
NORTHPORT PIER   0140   34      70/ 16/ 20 1023.0S
KEWAUNEE LAKESHO 0148   36      60/ 11/ 16 1020.5F
SHEBOYGAN LAKESH 0100   37      20/ 15/ 16 1020.2R
PORT WASHINGTON  0140   39      40/ 12/ 17 1020.0S
MILWAUKEE LAKESH 0150   38      20/ 16/ 18   N/A
KENOSHA   LAKESH 0100   38      20/ 18/ 20 1016.9
$$

TC  - TEMPERATURE IN CELSIUS
VSB - VISIBILITY IN STATUTE MILES
WCI - WIND CHILL INDEX
HX  - HEAT INDEX





USA.gov is the U.S. government's official web portal to all federal, state and local government web resources and services.